RH
35 36 36 36 36 36 36 36 35 33 30 26 24 23 23 22 22 21 20 19 17 14 12 11 11 10 10 8 8 7 5 6 6 16 36 37 31 37 41 38 37 35 34 33 25 17 13 11 8 7 7 6 6 5 5 6 6 9 11 12 13 13 13 13 12 12 12 11 10 9 9 9 9 9 9 9 9 9 8 8 8 8 8 8 8 9 10 11
33 34 35 36 36 36 36 36 36 35 34 31 28 25 24 24 23 23 22 22 20 18 16 13 12 11 11 10 10 8 6 6 3 17 31 20 19 36 43 42 41 40 37 35 32 23 15 12 10 9 8 8 7 7 7 7 9 11 13 14 14 14 14 13 13 12 12 11 11 10 10 10 10 10 10 10 9 9 9 9 9 9 9 8 8 9 10 11
33 34 34 35 35 36 37 37 36 36 35 34 32 29 27 26 25 24 24 24 23 22 20 17 14 12 11 10 11 9 8 7 4 14 18 9 17 31 38 44 44 43 39 36 35 30 21 15 13 11 10 10 9 9 9 10 12 14 15 14 14 15 15 14 14 13 13 12 11 11 11 11 11 11 11 11 10 11 10 10 10 9 9 9 9 10 11 10
32 33 34 35 35 36 36 37 37 37 36 35 34 32 31 29 27 26 25 25 25 25 24 22 19 15 13 11 11 10 9 8 7 9 8 6 14 21 31 43 46 45 42 38 36 35 28 19 15 13 11 11 11 11 11 12 13 15 15 13 14 16 16 15 14 14 13 13 12 11 11 11 11 12 12 12 12 12 11 11 10 10 10 9 9 10 10 9
24 26 28 30 32 34 35 36 36 36 37 36 36 35 33 31 30 29 28 27 27 27 26 25 24 20 16 13 12 11 10 10 9 8 6 6 8 12 23 36 45 46 43 41 38 37 34 25 18 15 13 12 13 13 13 14 14 15 14 13 15 17 16 16 15 15 15 14 14 12 12 12 12 13 13 13 13 12 11 10 9 9 8 8 9 9 8 9
19 19 20 21 23 25 27 29 32 34 35 36 36 36 35 33 33 32 32 31 30 29 29 29 27 25 21 17 13 12 12 11 11 10 8 6 5 7 14 26 39 44 44 43 40 39 38 32 23 18 16 14 14 14 14 15 15 14 13 13 15 17 17 17 16 16 16 15 14 14 13 13 13 12 13 13 12 12 11 9 7 7 7 7 7 7 8 8
19 19 19 19 19 19 20 21 23 25 28 30 33 34 35 35 35 35 34 33 33 32 32 32 30 28 26 22 17 13 12 12 12 11 9 7 6 6 8 17 31 40 44 44 42 41 39 37 29 22 19 17 16 15 15 15 15 14 12 13 15 16 17 17 17 17 17 16 16 15 14 14 13 12 12 12 12 12 10 8 7 6 6 7 7 7 7 8
18 18 19 19 19 20 20 20 20 20 21 22 24 25 28 31 33 35 36 36 36 36 35 35 34 32 30 26 22 16 14 14 13 12 11 9 7 7 6 11 22 34 41 45 44 42 40 40 35 27 21 19 18 16 16 16 16 14 12 13 15 16 16 17 18 17 17 17 16 15 14 14 13 12 11 10 10 10 8 7 6 6 6 6 7 7 7 7
17 17 18 19 19 20 20 22 23 22 22 22 22 21 21 23 25 28 32 35 37 38 39 38 37 35 34 30 26 21 18 17 14 13 13 11 9 8 7 8 16 27 37 43 45 43 41 39 36 32 25 21 20 18 17 17 16 14 12 13 14 15 16 17 17 17 17 16 16 14 13 14 14 12 10 10 10 8 8 7 6 6 6 6 6 6 6 6
18 17 18 18 19 19 20 21 22 24 25 25 25 23 23 23 24 25 27 29 32 36 39 41 39 38 37 33 30 26 23 20 15 14 14 13 12 9 8 7 10 20 31 40 44 45 43 39 37 35 31 25 21 20 19 18 17 14 12 14 15 16 17 17 17 16 16 16 16 13 13 14 14 13 11 10 11 9 7 6 6 6 5 5 5 6 6 6
19 19 18 19 19 19 20 20 21 23 25 25 26 26 26 27 27 28 29 30 31 33 36 39 41 41 39 36 33 29 26 22 17 15 14 14 13 11 9 7 8 15 25 36 43 45 44 41 39 38 36 30 24 22 20 20 18 15 14 15 15 17 18 17 17 16 16 15 15 13 13 13 12 11 10 11 11 9 7 6 7 6 5 6 5 6 6 6
19 20 20 19 19 20 20 20 21 22 24 25 26 27 29 29 29 30 31 34 36 36 37 38 40 42 41 39 36 31 27 24 20 16 15 16 14 12 11 8 7 11 21 33 40 44 45 43 41 38 38 35 29 25 22 21 20 16 15 15 16 17 18 17 16 16 15 14 14 13 12 11 10 10 10 10 10 9 7 7 7 6 5 6 6 6 6 6
21 20 20 20 20 20 20 20 20 21 24 25 26 28 30 30 31 32 33 36 38 39 39 39 41 42 42 41 34 29 28 24 21 18 16 16 15 14 12 10 8 8 17 29 37 42 45 45 42 39 39 38 34 29 24 23 21 19 16 15 16 17 17 16 15 15 13 13 14 13 13 12 10 10 10 10 10 9 9 8 7 6 6 6 6 6 6 7
28 24 22 21 20 20 20 20 20 21 23 24 26 28 29 30 31 32 35 37 39 40 41 42 44 43 44 44 34 28 28 24 21 19 17 17 17 16 13 11 9 8 14 26 34 40 43 46 45 42 40 38 37 34 28 24 23 20 16 15 16 16 16 15 14 14 12 12 12 11 14 13 11 11 10 10 11 11 10 9 6 6 7 7 7 8 8 9
34 32 28 25 22 21 20 21 21 21 22 23 24 26 27 28 29 31 34 36 37 39 41 43 45 44 46 48 41 34 28 22 20 19 18 19 20 18 15 11 10 8 11 19 29 37 41 44 46 44 41 38 38 37 32 28 25 21 17 16 17 17 15 14 13 12 11 11 10 11 14 12 11 12 11 12 12 12 10 7 6 6 7 8 9 9 10 11
34 34 34 32 28 25 23 22 21 22 23 23 24 25 25 25 27 30 32 33 34 35 37 40 43 45 46 48 47 43 34 25 23 22 21 22 22 19 15 12 10 8 10 15 23 32 39 42 45 45 43 40 37 35 35 32 27 23 19 16 17 17 15 14 14 13 11 11 9 11 14 11 9 11 13 15 13 11 9 6 6 6 7 9 10 11 11 12
32 33 34 34 34 32 30 27 25 24 24 24 25 24 23 24 26 28 30 31 32 32 32 32 36 40 43 45 44 43 40 34 29 26 24 22 21 18 14 12 10 8 9 13 19 28 36 40 43 45 44 41 37 34 34 33 31 27 22 18 16 15 15 15 15 14 12 11 9 11 14 11 8 10 13 13 11 10 8 6 7 7 8 10 10 12 12 12
29 32 33 34 35 35 34 33 31 29 28 27 27 24 23 24 25 26 28 30 30 31 30 28 28 29 34 38 37 37 38 38 33 28 25 22 19 17 13 12 10 9 9 11 17 24 32 39 42 44 44 43 39 36 33 31 29 25 22 19 16 13 13 14 14 15 13 11 10 11 12 10 9 12 14 12 10 9 8 7 9 9 10 11 11 12 12 13
26 30 34 35 36 36 36 36 36 35 35 33 31 27 25 25 25 25 26 27 29 31 30 28 25 22 22 25 29 31 31 32 32 29 26 22 19 16 12 11 9 9 9 11 15 21 28 34 38 41 44 43 40 37 30 25 22 19 17 16 15 13 11 12 13 15 15 12 11 10 10 9 13 16 16 15 12 9 8 10 11 12 12 12 12 13 13 14
22 28 36 39 39 39 39 38 39 39 39 39 37 33 30 29 27 26 26 27 29 31 31 29 25 21 18 17 19 21 23 26 29 28 25 21 19 16 13 11 9 9 8 11 17 22 27 30 33 40 42 39 37 34 26 19 16 14 13 13 13 11 10 11 11 12 14 13 12 10 8 10 18 20 17 17 14 9 10 12 13 13 13 13 13 14 13 13
20 27 39 45 44 43 42 42 42 42 42 43 40 36 35 32 30 29 28 29 29 30 30 29 26 21 17 14 13 14 15 18 24 26 23 20 19 16 13 11 9 9 10 14 19 22 25 24 30 43 41 32 31 30 25 19 15 13 12 12 11 11 10 10 11 11 11 12 12 10 8 11 19 20 18 18 13 11 12 13 15 15 15 15 14 15 14 15
22 29 41 47 46 45 44 43 42 41 40 40 39 37 36 34 32 30 29 29 28 28 28 28 26 20 14 11 10 12 12 13 19 23 20 19 19 15 13 10 8 10 14 17 18 18 18 20 33 48 42 29 27 29 27 22 16 14 13 12 12 12 11 11 11 10 9 9 10 10 10 13 17 18 18 17 14 14 15 15 16 15 15 16 15 16 16 16
25 31 39 42 40 39 38 37 36 34 31 32 34 34 33 32 30 29 28 26 25 25 24 23 22 16 10 10 10 10 11 12 16 18 18 17 16 14 12 11 10 13 16 18 19 19 20 26 41 52 45 31 26 28 29 27 22 16 13 13 14 13 12 12 11 9 8 8 9 10 12 15 16 15 16 17 16 16 17 17 16 16 16 16 16 18 19 19
27 30 32 31 27 24 23 24 23 21 20 23 26 27 26 25 23 22 22 21 21 22 20 19 17 12 8 9 9 9 10 13 13 14 16 16 14 13 12 13 14 16 18 20 24 27 32 42 50 54 50 33 23 27 29 30 29 20 14 13 13 14 14 13 12 10 9 8 10 13 14 16 15 13 16 19 17 17 18 17 17 17 17 18 19 22 23 22
25 24 22 18 14 12 12 12 12 12 13 15 16 18 18 16 15 16 15 16 16 17 17 16 13 10 10 9 8 10 10 11 12 12 14 15 14 15 15 15 17 18 22 25 28 33 41 50 52 54 52 32 22 31 30 30 31 21 14 13 13 16 16 14 13 11 11 11 14 17 17 17 14 14 19 21 19 19 19 18 18 19 19 20 24 26 25 22
19 17 14 10 8 8 7 7 7 7 9 10 10 11 11 11 11 11 11 12 11 11 13 13 12 11 11 9 9 12 11 12 16 15 15 17 17 18 19 18 19 21 25 28 30 35 42 48 52 53 46 25 17 32 36 30 28 22 16 13 13 16 17 19 18 15 18 20 20 20 20 20 18 19 23 24 22 21 20 20 20 21 22 23 25 24 23 21
13 11 8 7 6 6 6 6 6 6 7 6 8 9 10 12 10 10 13 12 9 11 11 11 16 18 14 12 13 12 14 18 19 16 18 22 20 20 22 21 22 25 27 29 29 33 39 44 51 53 43 24 15 29 41 36 26 20 15 13 14 18 23 29 30 28 29 29 27 25 22 27 30 27 28 28 26 22 20 20 21 23 25 26 24 22 22 21
9 7 6 6 5 5 5 5 5 8 9 10 13 16 16 16 12 14 18 16 15 15 14 14 19 23 20 18 18 17 23 27 21 19 24 28 25 24 24 24 26 28 27 29 30 33 38 42 48 48 39 26 16 23 38 40 29 17 13 14 17 22 29 36 39 40 40 34 31 30 26 33 43 39 34 31 27 23 21 21 24 27 28 27 24 22 22 20
5 5 6 5 4 6 5 6 9 13 16 19 23 24 25 24 22 26 26 29 35 26 17 21 22 25 27 22 22 27 35 36 28 27 30 29 27 27 27 28 28 29 27 29 32 33 38 41 42 40 32 22 15 21 33 37 31 20 13 15 20 25 31 38 42 46 46 38 34 36 33 36 47 49 42 36 31 28 27 28 29 30 30 29 26 23 21 18
8 7 5 5 6 6 4 5 17 31 38 40 44 44 42 41 44 46 35 35 51 41 25 30 32 33 33 27 29 35 39 40 35 35 34 29 29 28 30 32 29 29 28 29 33 34 36 38 39 41 35 21 13 20 31 34 30 25 19 16 21 26 30 38 44 46 46 39 34 39 40 39 44 47 43 40 39 37 35 34 34 34 34 33 30 26 23 21
11 7 13 18 11 7 15 24 41 67 77 70 73 76 72 70 68 61 45 40 62 58 37 40 44 41 39 36 38 40 41 43 40 38 36 31 31 30 30 32 30 29 29 29 33 34 36 36 38 43 38 23 15 18 29 35 30 25 23 20 22 28 31 38 45 46 43 37 33 36 41 43 43 42 40 39 41 40 37 36 35 36 36 34 33 31 27 25
18 30 51 56 38 34 56 74 78 89 94 83 84 91 92 91 80 69 62 62 79 73 50 51 55 50 50 48 47 46 43 44 41 40 39 33 33 32 30 30 29 29 29 29 33 34 37 36 34 39 37 28 21 18 26 36 31 22 22 24 25 27 30 33 37 37 33 32 31 31 39 46 42 39 41 40 38 36 34 34 33 32 33 34 34 32 28 27
44 70 90 90 78 78 95 104 87 77 85 89 91 96 98 96 87 81 78 76 88 80 56 56 60 56 58 54 52 52 47 45 43 41 42 39 37 34 32 32 30 30 30 31 33 34 36 35 33 37 39 34 28 21 24 31 31 23 18 22 24 22 23 23 24 23 21 26 32 34 41 45 38 35 38 39 38 38 36 33 29 28 31 34 34 30 26 23
79 95 104 97 82 81 90 93 81 76 90 98 99 101 95 88 91 94 82 75 89 82 57 59 63 61 61 55 55 57 51 48 46 43 43 42 40 37 33 32 31 30 32 33 34 34 36 37 38 39 39 38 31 23 23 26 28 25 19 21 22 20 19 17 17 17 17 26 38 44 47 44 36 32 33 35 37 38 35 29 24 26 30 35 34 27 21 18
95 99 103 91 69 68 79 87 85 84 94 102 102 98 87 84 96 98 81 77 95 85 60 61 66 62 62 61 64 64 56 53 50 47 46 42 40 38 34 33 32 31 32 33 34 37 41 41 40 37 35 38 33 25 24 25 25 25 22 22 21 21 24 24 23 22 27 41 52 53 49 39 33 29 27 35 40 36 32 27 23 27 34 38 36 29 24 20
97 100 103 94 85 87 91 94 90 83 92 102 99 90 86 94 101 93 78 82 99 89 65 63 66 64 66 68 72 71 65 62 57 53 51 46 43 40 35 33 32 30 31 32 35 41 45 39 32 31 31 35 34 28 25 24 24 24 22 20 19 21 28 36 39 38 46 61 61 53 47 39 36 33 28 35 43 39 34 29 27 34 42 44 41 39 35 27
91 98 98 95 98 98 91 87 87 89 98 98 89 87 96 103 97 86 81 88 101 93 70 65 68 67 69 74 78 77 72 70 66 59 54 51 47 42 37 34 32 30 29 31 38 46 46 35 27 28 30 33 34 31 27 23 23 22 20 18 18 20 24 35 49 54 59 66 61 52 50 46 44 42 32 33 41 41 37 34 36 45 49 47 45 42 35 30
73 77 83 92 99 101 95 85 82 92 100 93 89 96 103 101 90 84 86 90 101 98 75 65 70 69 69 76 80 78 74 74 72 63 55 52 49 45 41 36 32 30 31 34 42 49 45 33 28 29 31 33 33 31 28 24 23 21 19 18 17 19 20 24 38 48 52 58 56 50 48 47 46 41 33 35 41 42 38 36 43 52 52 49 48 38 28 32
58 57 71 88 95 100 99 83 70 75 85 91 98 101 102 100 87 81 85 86 95 103 86 68 67 70 73 79 81 76 71 72 70 65 61 56 50 48 43 37 33 31 33 38 45 50 44 35 32 31 32 35 33 29 25 21 21 21 21 20 17 18 21 23 30 36 41 48 50 47 45 43 40 32 27 33 40 39 36 38 47 53 51 50 45 32 22 26
61 55 67 82 89 96 95 81 67 65 77 94 103 102 102 100 87 81 84 81 84 98 98 80 66 68 80 88 89 80 71 74 72 67 68 65 58 52 42 34 35 35 37 41 47 51 45 37 37 35 33 37 32 24 22 22 22 20 20 21 20 18 19 22 27 29 31 35 38 37 35 34 31 27 26 29 33 33 33 38 45 48 49 46 34 22 18 17
77 74 80 83 88 95 92 82 76 75 85 97 102 100 96 94 91 90 89 84 80 86 99 96 77 71 82 94 98 88 76 81 84 75 73 71 62 55 42 34 37 38 39 42 46 50 44 38 43 41 36 41 38 27 27 32 31 26 21 21 22 21 20 20 21 21 18 17 20 21 21 21 23 25 26 27 28 29 30 34 38 40 41 37 26 18 18 16
94 94 94 88 87 90 86 82 81 85 94 98 97 95 91 92 97 98 97 96 88 81 92 102 92 83 89 95 99 90 77 83 91 83 79 74 61 52 43 37 40 40 41 44 42 46 43 38 49 52 43 48 52 40 41 46 43 39 39 40 39 34 29 27 26 25 23 20 18 19 20 22 23 26 29 29 29 30 31 31 31 31 29 26 21 19 19 20
99 100 97 86 80 81 83 86 90 94 98 96 93 93 95 99 100 99 101 101 96 90 94 101 99 97 97 93 89 83 74 78 85 84 82 75 62 54 46 40 43 42 42 44 39 39 41 40 55 66 59 67 75 62 59 64 60 59 62 65 66 59 51 47 44 43 41 37 32 30 30 29 29 31 32 30 27 28 29 28 26 26 24 21 21 22 24 26
95 98 99 90 82 84 92 99 100 99 95 92 94 97 99 100 100 100 99 97 96 93 92 96 99 101 99 92 85 78 70 72 81 84 82 73 66 66 58 48 48 44 41 43 38 37 43 46 62 77 72 81 96 87 79 82 80 81 80 72 69 65 58 53 50 48 46 43 41 39 38 36 33 32 32 30 29 28 28 28 26 25 24 24 26 27 29 30
93 91 93 93 92 95 102 102 98 95 93 94 98 100 100 100 100 101 99 98 97 92 91 97 100 100 101 99 91 80 76 79 83 80 75 72 75 80 75 62 55 48 43 44 44 48 56 58 69 82 73 67 77 79 81 88 90 91 89 79 70 64 60 55 49 45 42 40 40 38 41 43 37 33 31 29 30 31 31 30 28 27 28 31 34 35 36 37
98 92 89 93 98 100 100 95 91 93 96 100 100 99 100 101 100 100 100 100 100 98 98 100 100 99 101 101 93 85 87 92 91 84 79 78 79 83 83 74 64 55 46 46 50 57 70 73 76 91 90 74 69 71 77 86 90 87 83 80 75 71 68 63 54 48 43 41 42 43 48 52 48 43 41 38 37 38 37 36 36 38 42 48 50 48 47 48
101 100 97 98 99 98 96 94 95 98 100 101 100 99 101 101 99 100 101 97 94 97 101 98 96 97 98 99 97 95 99 99 97 98 95 89 84 82 81 74 68 61 51 49 53 60 76 83 78 87 100 97 91 89 87 89 93 90 84 83 82 78 72 65 57 51 47 44 47 52 55 60 62 62 60 58 55 53 50 47 47 50 56 61 62 58 55 53
97 98 100 103 99 95 96 99 101 101 100 100 100 100 100 101 100 100 101 96 90 94 96 89 86 91 97 101 97 92 95 95 97 101 97 90 88 85 78 69 65 65 59 55 58 64 80 91 83 83 96 101 101 101 98 98 100 99 96 94 92 87 76 63 54 49 47 48 53 59 61 64 68 68 66 67 68 69 68 63 59 60 62 63 64 67 68 65
96 95 98 102 101 97 99 102 101 100 100 100 101 101 100 100 101 100 101 100 95 91 85 79 81 85 91 95 89 84 87 85 88 96 88 77 78 77 71 63 57 60 61 60 63 68 81 96 94 91 98 101 102 104 103 101 102 101 100 96 91 87 78 65 56 52 55 60 61 60 60 62 64 63 63 67 71 75 77 74 69 66 62 59 62 71 79 78
98 95 94 99 101 100 101 102 101 101 99 96 98 101 100 100 101 101 99 100 100 93 80 77 79 76 81 94 96 96 95 84 82 88 80 69 71 70 65 59 53 53 55 56 61 65 76 93 93 88 96 101 99 101 101 97 95 96 94 87 81 78 75 69 63 61 65 73 78 74 69 67 65 65 67 70 74 78 78 75 72 67 64 62 60 62 66 66
102 99 96 99 102 101 101 101 99 100 98 95 96 100 101 99 100 101 100 99 101 100 92 88 83 77 85 100 101 98 96 90 89 89 77 72 76 72 66 61 56 55 53 51 54 55 65 84 87 79 87 96 94 96 100 100 98 96 92 85 78 76 76 72 70 72 72 76 83 86 85 84 81 77 76 78 79 79 76 71 69 69 69 70 68 63 60 57
102 98 97 101 102 100 101 101 99 99 100 98 97 100 101 100 96 96 100 101 100 101 101 98 93 89 92 95 92 89 92 94 96 91 81 81 84 77 72 69 64 62 60 55 54 50 50 67 80 77 81 89 88 89 93 92 88 83 80 79 78 80 78 70 73 85 88 85 86 89 91 93 91 89 87 85 84 81 76 71 72 75 78 77 75 72 70 67
Wind_Speed
47 47 48 49 50 50 50 50 50 50 50 50 50 49 48 47 46 45 44 43 43 43 42 40 39 38 36 35 33 32 31 32 34 36 36 39 40 39 37 35 33 32 31 29 27 26 27 28 28 28 29 30 30 30 30 30 30 29 28 26 25 26 25 25 24 23 22 21 20 20 19 18 17 17 16 16 17 18 18 19 19 19 19 21 22 22 21 19
46 46 47 47 48 49 50 50 50 50 50 50 50 50 49 49 48 46 45 44 44 43 43 43 41 40 38 37 35 34 33 31 31 33 37 40 41 39 37 35 33 32 31 30 29 27 27 27 28 27 28 29 30 31 31 31 30 29 27 26 26 27 27 26 25 24 23 22 21 21 20 19 18 17 17 17 17 18 18 19 19 19 20 21 22 22 20 18
45 46 46 47 47 48 48 49 50 50 50 50 50 50 50 50 49 48 47 46 45 44 44 44 43 42 41 39 38 36 34 33 30 31 37 39 40 39 38 36 33 33 33 32 31 28 27 27 27 27 27 28 30 31 31 31 30 29 27 26 28 28 28 28 27 26 24 23 23 22 21 20 19 17 17 17 17 18 18 18 19 20 20 21 22 22 20 18
45 45 46 46 47 47 47 48 49 49 50 50 50 50 50 50 50 49 48 47 46 45 44 44 44 44 43 41 40 38 36 35 31 30 35 38 39 39 39 37 35 34 34 33 32 29 27 27 27 28 28 28 29 30 31 30 30 29 27 28 29 29 30 30 28 27 26 25 24 23 22 20 19 17 17 17 17 18 18 19 19 20 20 21 22 21 19 18
45 45 46 46 46 47 47 47 48 48 49 49 50 50 50 50 50 50 50 49 48 47 46 45 45 45 44 44 42 40 38 36 33 32 34 36 37 38 39 38 36 36 35 34 32 30 28 27 27 28 28 28 28 29 30 30 30 29 28 29 30 31 31 30 29 28 27 26 25 24 23 21 20 19 18 17 18 18 19 20 20 20 21 21 20 19 18 19
44 44 45 45 46 46 47 47 47 48 48 49 49 50 50 51 51 51 50 50 49 48 47 46 45 45 45 45 44 42 40 38 36 34 35 35 35 36 39 39 38 37 36 34 32 31 29 28 27 28 28 28 28 29 30 30 30 29 29 31 32 31 31 30 29 28 28 27 26 24 23 21 20 20 19 18 19 19 20 20 20 20 20 20 19 19 20 20
43 43 43 44 44 45 45 46 46 47 47 48 49 49 50 50 51 51 51 50 50 49 48 47 47 46 45 45 45 44 42 40 38 37 36 36 35 35 36 38 38 38 37 35 33 32 30 29 29 29 29 29 28 29 31 31 30 29 29 31 32 32 31 31 29 29 28 27 26 24 22 21 21 20 20 19 19 21 21 20 19 19 20 20 20 21 21 21
43 43 43 43 43 43 44 44 44 45 46 46 47 48 49 49 50 50 50 50 50 49 49 48 48 47 46 45 45 45 43 40 41 40 37 37 36 35 35 36 38 39 38 36 34 33 32 31 30 30 30 30 30 30 31 32 31 29 29 32 33 32 32 31 30 29 28 27 25 24 23 22 21 21 21 21 21 23 22 20 19 20 21 21 22 22 21 21
45 44 44 44 43 43 43 43 43 44 44 45 45 46 46 47 47 48 49 49 49 49 48 48 48 47 46 45 45 45 42 42 44 41 38 37 36 36 35 35 37 39 39 37 36 35 33 31 31 31 31 31 31 31 32 32 31 29 30 33 34 34 33 31 30 29 27 26 25 25 24 23 22 21 23 23 24 25 22 20 20 21 21 21 22 21 21 21
46 46 45 45 44 44 44 43 43 43 44 44 44 44 45 45 45 46 46 47 47 47 48 48 48 48 47 46 45 44 42 44 45 42 39 38 37 37 37 36 36 38 40 39 37 35 33 33 33 33 32 32 32 32 32 32 30 30 32 34 34 34 33 31 30 28 27 26 25 26 25 24 22 22 25 26 26 24 20 19 20 22 22 21 21 20 20 21
48 48 47 47 46 45 45 44 44 43 44 44 44 44 44 44 44 45 45 45 45 46 46 47 47 47 47 46 45 43 42 44 45 44 41 39 39 38 38 37 37 38 39 39 38 36 35 34 34 33 33 32 32 33 33 32 31 31 33 34 35 34 33 31 30 29 28 27 27 27 26 25 25 25 28 28 26 22 19 19 21 21 21 21 20 19 20 21
50 49 49 49 48 47 47 46 45 45 44 44 44 44 44 44 44 44 45 45 45 45 45 46 46 46 47 46 44 42 43 44 45 45 43 40 40 39 38 37 37 37 38 39 39 37 36 35 34 34 34 32 33 33 33 33 32 31 33 35 35 34 33 31 31 30 29 29 28 27 28 28 27 28 30 29 25 20 19 21 21 20 19 20 19 18 19 19
51 51 51 50 50 49 48 48 47 46 46 45 45 45 45 44 44 44 45 45 45 45 45 46 46 46 46 44 42 43 44 44 44 45 44 41 40 39 38 37 36 37 37 38 39 38 37 36 35 34 34 34 34 34 33 34 33 32 33 35 35 34 33 32 32 31 30 31 29 28 31 31 30 31 31 27 23 20 20 21 20 19 19 19 18 19 19 18
51 52 52 51 51 51 50 49 49 48 47 47 46 46 46 45 45 45 45 45 45 45 45 46 46 46 46 43 42 44 44 42 43 44 43 42 40 38 37 36 35 36 37 37 38 39 38 37 36 36 35 35 35 34 34 34 34 33 33 35 35 35 34 33 32 32 32 32 30 30 33 33 32 32 29 26 23 21 21 21 20 20 19 19 18 18 18 15
51 51 52 52 52 52 51 51 50 50 49 49 48 48 47 46 46 46 46 46 46 46 46 46 46 45 45 43 43 44 43 42 43 44 43 42 40 38 37 36 36 37 39 39 40 40 40 39 38 37 35 35 35 35 35 35 34 33 33 34 35 35 35 34 34 34 33 32 31 32 34 33 32 31 28 26 23 21 21 21 21 21 20 19 18 17 16 14
50 51 51 52 52 52 52 52 51 51 51 50 50 49 49 48 47 47 47 47 47 46 46 46 46 45 45 44 44 45 44 43 43 44 43 42 40 39 39 39 39 39 40 41 41 41 41 40 39 38 37 36 36 36 36 36 35 34 33 34 35 35 35 35 35 35 33 32 32 34 35 32 31 30 27 25 22 22 22 22 23 23 22 20 18 18 16 15
49 50 51 51 52 52 52 52 52 52 52 51 51 51 50 49 49 49 49 48 48 48 47 47 46 46 45 44 44 45 45 45 44 44 43 42 41 41 40 40 40 40 41 42 42 42 42 42 40 40 39 38 37 37 37 36 36 35 34 35 35 36 36 36 36 35 33 32 33 35 33 31 31 30 26 23 22 23 23 23 23 23 22 20 19 18 17 16
48 49 50 50 51 51 52 52 52 52 52 52 53 52 52 51 50 50 50 50 49 49 49 48 47 46 45 45 45 45 46 46 45 45 44 43 42 42 42 42 42 42 41 42 43 43 43 43 42 41 40 38 37 37 37 36 35 35 35 35 35 36 37 37 37 35 34 33 34 35 32 30 31 29 24 22 23 24 23 23 23 22 21 21 20 19 17 17
47 47 48 49 49 50 51 51 52 52 52 53 53 53 53 52 52 51 51 51 50 51 50 49 48 48 47 47 47 46 46 46 45 45 45 43 43 42 42 43 43 43 42 43 44 44 44 44 44 44 41 38 37 36 35 35 35 35 35 35 36 36 37 38 37 36 35 34 35 35 30 29 30 27 23 23 23 24 24 24 22 21 21 20 19 18 18 18
47 46 47 47 48 48 49 49 50 50 51 52 53 53 53 53 53 52 52 51 51 51 51 51 50 49 49 48 48 48 47 47 46 45 45 44 44 43 43 43 43 43 43 44 45 45 45 46 46 44 38 35 35 36 35 35 36 35 35 35 36 37 38 39 37 36 36 35 36 34 29 28 30 27 24 24 24 25 25 24 23 21 20 19 19 19 19 19
46 46 45 46 46 47 47 47 48 49 49 50 52 52 52 52 53 52 52 51 51 52 51 51 51 49 49 49 48 48 48 47 46 46 45 44 44 44 44 43 44 43 43 44 45 46 46 46 45 41 36 34 35 36 36 35 35 34 34 34 34 35 37 38 37 36 36 36 36 33 29 29 30 27 25 25 25 27 27 25 24 22 20 18 19 20 19 19
44 44 44 44 45 45 46 46 46 47 48 49 50 50 51 51 51 51 51 51 51 52 52 52 51 49 48 47 47 48 47 46 46 46 46 45 45 45 44 44 44 43 44 44 45 46 46 46 45 40 36 35 36 37 36 34 34 33 32 32 33 34 35 36 37 37 36 36 36 33 30 31 30 27 27 27 28 29 28 26 24 21 20 20 21 21 20 20
42 42 42 43 43 44 44 45 45 46 46 47 48 48 48 49 49 50 50 50 50 51 51 51 50 47 46 46 46 47 46 45 45 46 46 46 46 45 44 44 44 44 44 44 45 45 46 45 42 39 36 36 37 36 35 34 34 33 32 31 32 32 33 35 37 37 37 37 35 32 30 31 30 28 28 30 31 31 29 26 24 22 21 21 21 20 20 20
40 40 40 40 41 41 42 42 43 43 44 45 46 46 46 46 47 48 48 49 49 49 49 49 48 46 45 46 46 46 45 44 44 45 45 45 45 45 44 43 43 43 43 43 43 44 43 40 37 37 36 36 36 35 34 34 35 34 32 31 32 31 33 35 37 37 38 37 34 31 30 30 29 30 31 32 33 31 29 26 23 22 21 21 20 19 19 20
38 38 37 37 37 37 38 39 40 41 42 43 44 44 44 44 45 45 46 47 47 47 47 47 46 43 43 46 47 47 45 43 43 44 44 44 44 44 43 43 44 43 43 42 43 43 42 39 36 36 35 35 35 35 35 34 34 34 32 31 32 32 34 37 38 38 38 36 33 30 30 30 31 32 33 33 33 31 29 25 22 22 21 21 20 20 20 21
36 35 35 34 34 35 36 36 37 39 40 41 42 41 41 40 41 42 42 43 44 44 45 45 42 40 43 45 45 44 43 41 42 43 43 43 43 42 42 43 43 42 42 41 41 42 41 39 37 35 34 34 36 37 37 35 35 35 32 32 33 34 35 36 37 38 37 34 31 30 32 32 33 34 34 33 33 31 28 25 23 23 21 20 20 21 21 21
34 33 32 32 32 33 33 34 36 37 38 39 39 38 38 37 38 38 38 40 40 40 41 42 40 39 41 43 41 41 41 40 42 43 42 42 42 42 42 43 43 42 41 41 41 41 41 39 36 35 35 36 37 38 38 36 36 35 33 33 34 34 35 36 36 38 36 32 31 32 33 34 34 35 35 34 33 31 28 26 25 23 21 20 21 21 21 20
30 29 29 29 30 31 32 33 35 35 36 37 36 35 34 33 34 34 35 37 36 36 38 39 39 39 41 41 40 38 36 37 40 41 40 40 41 41 42 42 40 39 38 38 39 39 38 36 34 33 35 37 36 36 36 36 35 34 32 34 35 34 35 35 36 37 35 32 34 36 36 37 36 35 35 34 32 31 28 27 25 23 21 21 22 22 21 20
27 26 26 27 29 29 31 32 33 34 35 34 32 32 31 31 32 32 34 34 32 33 36 36 37 40 41 41 39 37 35 37 38 38 38 40 41 40 40 39 37 36 36 36 35 34 33 32 33 34 35 35 33 33 34 35 34 32 32 34 35 36 37 36 36 38 36 34 37 39 39 38 37 36 35 33 32 31 29 27 25 24 24 24 23 21 21 20
23 23 24 25 26 28 30 31 31 32 31 30 29 29 29 30 31 33 34 33 30 32 35 35 36 39 40 39 38 38 38 39 39 38 39 40 40 40 38 36 35 36 37 36 34 34 33 33 35 36 36 34 33 33 34 34 33 32 33 34 36 38 39 38 37 38 38 37 39 41 41 40 39 37 36 35 33 32 31 28 26 26 26 25 22 20 20 20
20 20 21 21 23 26 27 28 29 30 28 28 27 27 28 30 32 35 34 30 28 29 33 35 36 38 38 37 36 38 40 41 40 40 41 42 41 40 40 39 39 39 39 38 36 35 35 37 38 38 37 36 35 34 35 36 35 34 34 35 37 40 41 40 39 40 40 40 40 42 43 42 41 39 37 37 35 33 31 29 27 28 27 25 23 21 21 21
17 18 18 17 20 25 26 27 29 29 28 27 26 25 27 32 35 35 33 30 28 29 33 36 37 37 35 33 34 36 39 40 40 40 40 41 41 40 41 41 42 43 43 41 39 38 36 37 38 37 36 36 36 35 36 38 37 35 36 38 40 42 44 43 43 43 43 42 41 43 44 44 43 41 39 38 35 34 32 29 28 28 28 26 24 22 22 22
18 19 17 16 20 25 26 26 27 28 28 27 26 26 29 34 33 31 32 32 29 29 34 37 38 37 35 34 35 35 36 37 38 38 37 36 36 37 38 39 39 41 40 38 37 38 37 37 37 37 36 36 36 36 37 38 38 37 38 40 42 45 46 47 47 46 45 44 43 44 44 44 44 42 41 38 35 34 33 30 29 29 29 27 24 23 22 22
18 18 16 16 21 24 25 25 26 27 28 29 29 28 30 32 31 31 33 32 28 29 35 38 38 38 36 35 36 36 37 37 36 37 37 37 37 36 37 38 38 38 36 34 35 36 36 37 38 36 36 36 35 35 34 34 35 36 38 41 43 45 45 46 46 47 46 45 44 43 43 43 43 42 40 37 36 35 33 31 30 30 28 26 24 23 23 23
18 16 16 17 20 23 24 24 24 26 28 29 29 27 28 31 33 33 35 33 28 29 36 38 38 38 37 37 36 35 36 36 36 37 37 37 37 37 37 37 38 37 36 35 35 35 35 35 34 33 33 34 33 32 32 33 36 37 38 41 43 43 43 43 44 45 45 43 42 42 42 42 43 41 38 36 36 35 34 32 30 29 28 26 26 25 25 24
16 15 17 18 19 19 21 22 23 26 27 28 29 27 28 32 34 34 36 33 27 30 37 38 37 37 37 38 38 37 36 35 35 37 37 36 35 35 35 34 35 34 34 34 34 33 34 33 32 32 32 33 32 31 31 33 36 38 40 41 42 42 42 42 43 43 43 42 40 41 42 41 41 39 36 35 36 35 33 31 30 29 29 28 27 26 25 24
15 15 17 19 19 18 20 23 23 24 26 29 30 29 28 30 34 36 36 31 26 31 38 38 37 38 37 38 38 38 38 36 34 36 37 37 36 36 35 34 32 31 31 32 32 31 31 31 31 32 32 32 32 33 32 33 35 37 37 37 39 41 43 44 45 45 44 43 42 42 41 40 39 37 35 35 35 34 33 31 31 32 30 29 28 26 24 23
17 17 18 19 18 17 19 23 23 24 26 29 30 28 27 30 34 36 35 31 26 31 39 40 38 38 37 37 37 37 37 36 35 36 36 36 37 36 36 35 33 32 32 31 31 31 30 31 31 32 32 32 33 34 34 34 34 33 32 33 37 41 42 44 46 46 45 45 44 42 42 41 39 38 36 35 35 34 32 32 33 33 31 30 30 28 25 22
20 20 19 18 17 15 16 22 25 26 27 27 27 27 29 32 34 34 33 31 28 29 37 42 40 38 37 35 35 35 35 35 34 34 35 36 36 36 36 36 33 33 32 31 31 32 32 32 32 32 33 33 33 33 33 32 32 32 31 33 36 39 41 42 44 44 44 44 44 43 42 42 41 39 38 37 36 35 34 35 35 34 32 31 30 28 26 25
20 19 18 18 17 14 17 23 27 27 26 25 25 28 30 31 32 32 30 30 29 27 32 40 41 40 39 38 36 36 36 35 33 33 32 33 34 35 35 35 33 32 32 32 32 33 33 33 33 33 34 34 34 33 31 30 31 33 35 36 37 38 40 41 41 42 42 42 42 42 43 42 40 39 37 36 36 35 35 36 37 35 33 32 30 28 27 26
19 17 17 17 16 15 18 23 26 26 24 24 27 29 29 29 30 28 25 25 28 28 28 34 40 40 40 41 40 38 38 36 33 32 31 31 32 33 34 34 33 33 33 33 34 34 35 34 33 34 36 36 34 31 29 29 29 32 35 36 37 38 39 39 39 40 40 40 39 39 38 37 36 36 35 34 34 34 34 35 35 33 32 31 29 28 27 27
16 16 16 17 17 17 20 23 24 24 24 25 28 28 28 29 26 19 17 21 27 29 28 30 37 39 39 41 40 38 39 37 34 32 30 30 30 30 31 32 33 33 33 33 34 35 36 36 35 36 36 35 34 31 29 30 30 31 32 33 34 35 35 36 35 35 34 35 35 34 34 34 33 33 32 32 32 32 31 32 31 30 29 29 28 27 27 26
15 16 17 18 19 20 22 23 23 24 26 27 28 27 26 26 20 12 13 18 24 27 27 29 36 38 38 39 38 38 39 37 34 31 30 30 30 30 31 32 33 34 34 34 35 37 38 37 38 38 37 35 33 31 30 31 31 31 31 31 31 31 31 31 30 30 29 30 31 31 31 31 31 30 29 28 27 27 27 27 26 26 26 26 26 26 26 25
17 17 18 19 22 24 24 24 25 26 28 27 27 26 23 20 19 15 15 19 21 23 25 30 36 38 38 38 38 38 39 36 34 31 29 29 29 30 31 32 33 35 35 35 35 37 38 39 39 40 39 38 36 34 33 33 33 32 32 31 30 29 29 28 28 28 28 28 28 28 29 28 28 27 26 24 24 24 24 25 24 24 25 25 25 25 24 24
19 20 20 21 23 25 26 27 29 28 27 27 26 23 19 19 22 20 18 22 25 24 25 32 37 39 39 39 38 39 37 34 32 31 30 30 29 29 31 32 33 34 35 35 35 36 38 39 39 39 39 39 39 38 37 35 34 33 31 30 29 28 28 27 27 27 27 26 26 27 26 24 24 25 24 23 22 22 23 23 23 24 24 24 24 24 23 23
20 21 23 24 25 27 28 29 28 27 27 26 23 19 19 22 22 19 21 26 28 26 28 32 35 37 38 39 39 38 36 33 31 30 31 30 29 29 30 31 33 34 34 35 36 36 37 38 38 37 36 35 35 34 34 33 32 31 30 29 28 27 26 26 26 26 25 25 25 25 23 21 21 21 21 21 21 21 22 22 22 22 21 21 23 23 22 22
21 21 23 25 27 28 28 27 27 28 27 23 21 22 24 24 20 21 27 31 29 28 30 32 31 32 35 37 38 37 34 32 30 28 29 30 29 29 29 30 32 33 35 36 36 37 37 37 37 36 35 34 32 32 31 31 30 29 28 28 27 26 26 26 26 26 25 25 25 24 23 22 20 20 20 19 20 20 21 21 21 20 20 20 21 23 23 23
22 22 23 26 27 27 27 29 30 29 24 21 23 27 27 24 23 27 31 30 28 29 30 29 29 30 32 33 34 33 33 31 29 27 28 28 28 27 27 29 30 32 34 36 37 37 37 37 37 36 36 35 34 33 32 30 30 29 28 28 27 26 25 25 25 25 26 25 25 26 26 25 23 22 21 20 20 20 20 20 20 20 19 19 21 23 23 24
22 24 25 26 27 28 30 31 30 27 22 19 23 29 29 26 27 30 29 27 26 26 26 27 29 31 32 32 31 31 30 29 29 28 27 27 26 25 25 27 28 30 32 35 36 35 35 36 37 37 36 35 34 34 34 32 31 30 29 28 27 26 25 24 23 24 24 24 24 25 27 26 25 25 23 22 22 21 21 21 21 20 19 19 21 23 25 25
23 25 25 26 29 32 32 31 29 26 22 18 20 26 30 30 29 29 28 25 24 24 24 26 27 30 32 31 29 28 28 27 27 26 25 24 24 24 24 25 26 27 29 31 33 33 33 34 36 36 36 35 34 34 34 33 33 32 31 30 28 27 26 24 22 21 21 21 22 23 24 25 25 25 24 23 23 22 22 22 21 21 20 19 21 24 26 28
23 25 26 29 33 33 31 29 27 22 19 17 16 22 30 33 31 29 26 23 22 23 24 25 26 27 28 27 25 27 28 27 27 26 24 24 23 22 23 24 24 25 26 28 29 31 31 32 33 34 34 35 35 34 33 33 32 32 31 30 29 28 27 25 23 21 21 21 22 22 23 23 24 24 24 24 24 24 24 23 22 21 20 19 21 23 25 27
22 25 29 33 34 32 29 27 24 20 18 16 14 18 26 32 32 30 26 23 22 21 22 25 26 25 24 24 25 27 27 25 26 26 25 24 24 23 22 22 23 24 24 24 26 27 28 30 31 31 31 33 34 34 33 32 32 31 31 30 29 29 28 27 26 25 25 25 24 23 23 23 23 23 24 24 25 26 25 24 23 22 21 21 22 22 23 25
Wind_Direction
255 254 254 254 253 253 253 252 252 252 251 251 250 249 248 248 248 249 249 248 248 248 248 249 250 251 253 254 254 254 254 251 247 244 243 244 245 245 245 245 245 246 246 247 248 247 246 244 239 233 228 225 222 219 216 214 213 211 211 210 210 214 216 219 221 223 226 228 230 234 235 238 241 242 244 245 246 248 249 250 253 256 258 261 264 267 269 269
255 254 254 253 253 253 253 252 252 251 251 251 251 250 249 249 248 248 248 248 248 248 248 247 248 248 250 251 252 253 253 252 249 241 240 244 244 244 245 244 244 244 245 245 245 245 244 244 240 234 228 225 221 218 215 212 212 211 209 208 210 213 215 218 220 222 225 227 230 233 235 238 240 242 243 245 247 250 252 254 257 259 260 263 265 267 267 268
255 254 254 253 253 252 252 252 252 252 251 251 250 250 250 249 248 248 248 248 248 248 248 247 247 247 247 248 250 251 251 252 249 240 240 244 243 242 243 243 242 242 243 243 242 243 243 244 241 235 229 225 222 219 215 212 211 210 207 208 210 213 215 218 219 221 223 226 229 232 234 236 239 242 245 246 250 253 255 257 259 260 262 264 267 268 269 269
254 254 253 253 253 252 252 252 252 252 251 251 250 249 249 249 248 248 248 248 248 248 248 248 247 246 246 247 247 248 249 250 248 242 243 244 241 241 241 241 240 240 241 241 241 241 242 242 240 235 229 225 223 220 216 213 212 210 207 208 210 213 215 217 219 220 222 225 228 230 232 234 237 241 246 249 253 256 257 259 259 262 265 267 270 271 272 272
254 253 252 252 252 252 251 251 251 251 251 251 250 249 249 248 248 248 248 247 247 248 248 248 248 247 246 246 246 246 247 247 246 244 245 245 242 239 238 238 238 239 239 240 240 240 240 241 240 236 230 226 224 221 218 215 212 211 209 209 210 213 216 218 219 221 223 226 228 230 232 234 236 240 246 251 254 257 258 259 262 266 270 272 272 271 268 267
254 253 251 251 250 250 250 250 250 250 250 250 250 250 249 249 248 248 248 248 247 248 248 248 248 247 246 245 245 245 245 246 245 244 244 245 244 240 237 236 236 238 238 238 238 238 239 240 240 237 232 227 224 222 220 215 212 211 211 211 212 213 217 219 220 222 224 227 229 231 233 235 238 240 244 249 254 257 258 259 265 270 270 268 266 263 262 262
254 253 251 250 249 249 248 248 248 249 249 249 249 250 250 249 249 249 249 248 248 248 248 248 248 247 246 245 245 244 245 246 244 243 243 244 244 242 238 235 234 236 237 236 236 236 236 237 237 235 232 228 224 222 220 216 212 211 211 213 214 214 217 220 221 224 225 228 230 232 234 235 238 240 242 247 253 257 259 261 265 265 262 261 260 259 260 262
254 253 251 250 249 248 248 247 247 247 247 247 247 248 248 249 249 249 249 249 249 249 248 248 248 247 246 245 244 244 244 245 244 243 243 243 244 243 241 236 233 234 235 235 234 234 234 234 235 234 231 227 225 223 221 218 214 211 211 213 215 216 218 220 222 224 226 228 231 233 234 235 237 239 241 245 251 255 258 259 260 259 259 259 260 261 262 263
255 253 252 250 249 248 247 247 246 246 246 246 246 246 247 247 247 248 247 247 247 247 247 247 247 246 246 245 243 242 242 243 244 243 242 242 242 243 242 238 232 231 233 233 233 232 232 233 234 233 231 228 226 224 222 220 217 212 211 213 215 216 218 221 223 225 227 229 230 232 233 234 235 237 241 243 246 251 253 255 257 258 259 260 261 262 263 263
255 254 252 251 250 248 247 246 246 245 245 245 245 246 246 246 246 246 246 246 245 245 245 246 246 245 245 244 243 241 240 242 243 242 241 241 240 240 240 239 233 230 230 231 231 230 230 232 232 231 231 229 227 226 224 222 219 215 213 214 216 217 219 222 224 225 228 230 230 231 233 234 235 237 242 243 244 248 251 253 254 257 259 261 261 261 260 261
256 255 253 252 251 249 248 247 246 245 244 244 244 245 245 245 245 245 245 245 244 244 244 244 244 244 244 243 243 241 239 240 240 241 240 240 240 239 239 239 235 231 228 229 230 229 229 230 231 231 231 231 229 227 226 224 222 219 217 217 218 219 220 221 223 225 227 229 229 230 232 234 236 238 241 243 246 250 252 251 253 257 260 261 260 258 257 258
256 255 254 253 252 251 249 248 247 246 245 244 244 244 244 244 244 244 244 244 244 243 243 243 243 243 243 243 242 239 237 238 238 239 239 239 239 239 238 237 236 233 229 228 229 229 228 229 230 231 230 230 230 228 226 226 224 221 221 221 221 221 222 221 222 224 226 228 228 229 232 234 235 237 240 243 249 252 251 252 256 259 258 256 255 254 254 257
258 256 254 253 252 251 250 249 249 247 246 245 244 244 243 243 243 243 243 243 243 243 243 243 243 242 242 242 240 238 238 237 237 238 238 238 238 238 237 236 235 234 231 229 229 229 228 228 229 230 230 229 229 229 227 227 225 223 222 224 224 224 223 222 222 223 225 227 227 229 231 233 234 236 240 244 248 249 250 254 257 255 249 246 246 248 252 257
258 257 255 254 253 252 251 250 249 248 247 246 245 244 243 243 243 242 242 242 242 242 242 242 242 241 241 240 237 238 238 236 236 236 236 236 236 237 236 234 233 233 231 228 228 228 227 227 228 229 229 229 229 229 228 227 225 223 222 224 225 225 224 223 222 223 224 226 227 229 231 233 234 237 240 243 243 244 247 249 248 244 240 239 241 246 252 257
258 257 255 254 253 252 251 250 249 248 247 246 245 244 244 243 243 242 241 241 241 241 241 241 241 240 240 237 236 237 237 234 233 233 233 233 234 234 233 231 230 229 229 227 226 226 226 225 226 227 228 229 228 228 227 226 225 223 222 225 226 227 225 223 222 223 224 225 227 229 231 233 236 237 239 240 240 241 243 243 239 236 234 235 239 245 250 255
260 257 256 254 253 252 251 250 249 249 248 247 246 245 244 243 243 241 240 240 240 239 239 239 239 239 238 235 234 236 235 232 231 232 232 232 232 232 231 230 229 228 227 227 226 225 225 225 225 225 226 227 227 227 226 226 226 223 222 224 227 227 225 223 222 223 223 225 227 229 231 233 236 236 235 237 238 240 242 242 238 235 232 234 238 243 248 253
261 259 257 255 253 252 251 250 249 248 247 247 246 245 244 243 242 241 240 239 238 238 238 237 237 237 237 235 234 233 233 232 231 232 232 231 231 231 230 229 228 226 226 226 226 225 225 225 224 225 225 226 226 227 226 226 226 224 222 223 225 226 226 224 224 223 223 224 227 230 230 231 234 234 233 234 235 238 239 239 237 235 234 235 239 243 248 252
262 260 258 256 254 253 251 250 249 248 247 246 245 245 244 243 242 241 240 239 238 237 237 236 236 236 236 234 233 232 232 232 231 231 231 231 231 230 229 228 227 226 225 225 225 225 225 224 224 225 225 225 226 227 227 226 227 225 222 222 223 225 226 226 225 224 223 224 228 230 228 228 233 235 234 234 235 236 235 233 233 233 235 238 242 246 250 254
263 261 258 256 254 253 252 251 250 248 247 246 245 244 244 243 242 241 240 239 238 237 236 236 235 235 235 233 232 232 231 230 230 230 230 230 230 230 230 229 227 226 224 224 224 224 224 224 224 224 224 225 227 228 228 227 227 226 222 220 222 223 226 227 226 224 224 224 226 229 224 224 233 236 235 236 237 237 233 230 229 231 235 240 245 249 253 258
264 261 258 256 254 253 251 251 250 249 247 246 245 244 243 242 242 241 240 239 237 236 236 236 235 234 233 232 231 230 230 229 229 229 229 228 228 229 229 229 227 226 224 223 222 223 224 225 225 224 225 227 228 229 228 227 227 227 223 220 220 221 223 226 226 224 225 224 226 227 221 222 232 235 234 236 236 235 232 228 228 231 235 240 247 252 257 263
263 261 258 256 254 252 251 250 249 248 247 246 245 243 242 242 241 240 240 238 236 235 235 234 234 234 233 232 231 230 229 229 228 227 227 227 227 228 227 227 226 225 224 222 221 222 223 225 225 224 224 226 228 228 228 228 228 228 226 222 220 219 221 225 225 224 224 224 226 225 219 222 231 234 235 236 235 233 230 228 228 230 234 241 248 253 258 262
262 260 258 255 253 251 250 248 247 246 245 245 244 243 242 241 240 239 238 237 235 234 234 233 233 232 232 230 229 229 229 227 226 226 226 226 226 227 227 226 225 223 222 222 222 222 223 224 224 224 224 225 227 227 226 227 228 229 227 223 220 219 220 223 224 223 223 224 226 224 220 224 229 231 233 233 233 231 229 228 229 232 236 241 247 252 257 262
261 259 257 255 252 250 248 247 246 245 243 243 242 242 240 239 238 237 236 235 234 233 232 232 231 229 228 227 226 227 226 223 223 224 225 224 224 225 225 225 224 222 221 221 222 223 224 225 225 225 225 225 227 227 226 226 227 228 226 222 219 217 217 220 222 222 222 223 225 224 223 226 228 229 229 229 230 230 229 229 231 235 239 242 248 254 260 266
261 259 257 255 252 249 247 245 244 242 242 241 241 240 238 237 236 235 233 232 232 231 230 230 229 226 223 222 223 224 221 219 220 222 223 222 223 223 222 222 223 222 221 220 221 222 223 225 227 227 227 227 228 227 225 225 226 227 224 221 216 212 213 217 220 221 222 223 224 224 225 225 226 227 225 225 228 229 230 231 234 237 241 246 252 258 263 267
261 258 256 253 250 247 245 243 241 240 240 239 238 237 235 233 233 232 232 231 230 229 228 228 227 222 218 221 223 221 218 216 216 218 219 219 220 221 220 220 221 220 220 219 219 221 221 222 224 225 226 228 228 227 225 223 224 224 221 217 213 208 209 214 218 220 222 223 222 221 222 222 222 223 221 223 227 229 230 232 235 238 242 248 254 258 259 259
259 257 254 251 247 244 241 238 237 237 236 236 235 234 232 230 230 230 230 229 228 226 226 224 222 217 217 221 221 217 215 213 213 215 215 215 216 217 218 219 219 219 218 217 218 220 221 222 223 223 224 226 226 225 224 221 221 221 217 213 210 207 206 210 215 218 220 221 219 217 217 217 218 218 218 221 224 227 229 232 235 239 244 250 257 261 260 258
258 254 251 246 242 239 236 233 234 233 232 232 231 229 227 225 226 226 225 227 225 223 223 220 215 212 215 217 215 215 213 209 210 212 212 212 213 212 213 215 217 218 217 215 217 218 219 221 222 223 222 223 224 223 223 221 220 219 214 209 208 205 204 206 211 216 218 215 211 212 213 212 213 216 218 220 224 228 230 233 236 240 246 253 258 261 261 262
255 250 245 240 236 233 229 229 230 228 227 227 226 224 222 220 220 220 220 222 222 219 218 216 209 208 210 211 210 209 207 207 210 211 208 209 210 210 212 213 212 214 215 215 218 219 219 222 223 224 224 224 224 223 221 221 220 218 211 207 204 202 202 204 209 215 214 209 206 209 212 210 210 215 219 221 226 230 232 234 238 243 248 252 256 259 260 261
250 245 239 234 230 226 224 223 223 222 222 222 219 217 216 213 212 212 213 214 214 214 213 210 206 204 206 207 204 199 196 201 206 206 207 208 208 207 209 211 210 211 211 212 217 219 219 221 222 222 223 223 223 220 218 218 219 216 210 206 202 200 203 204 207 212 211 206 204 208 212 210 209 214 219 223 227 231 234 236 240 245 249 253 259 264 264 264
241 236 231 227 223 219 217 216 215 216 216 214 211 208 206 205 203 204 206 206 207 207 205 203 201 199 202 204 199 193 191 196 199 200 203 207 207 205 205 205 207 209 209 207 210 213 213 216 219 220 219 217 216 215 213 214 215 213 208 204 201 201 204 204 206 211 211 207 205 208 212 212 212 215 219 223 226 230 234 236 240 245 249 254 261 266 266 266
229 223 218 216 213 209 207 206 205 205 206 203 200 199 199 197 197 199 198 196 200 202 197 194 194 195 199 199 194 192 191 193 195 197 201 203 204 204 203 203 203 206 207 207 208 209 209 211 214 216 216 215 213 212 211 212 212 210 206 203 201 202 204 204 206 210 212 210 208 209 212 215 216 218 222 224 226 230 234 237 240 244 248 254 261 266 266 265
209 201 198 199 199 196 194 197 200 199 199 195 189 193 198 196 195 194 188 183 190 195 191 188 188 190 193 191 189 193 194 194 194 196 200 203 203 202 204 205 205 206 207 206 207 208 209 212 213 212 212 213 213 212 210 210 209 207 204 201 201 202 204 205 207 211 214 213 212 212 213 216 218 220 223 226 229 234 237 239 243 247 250 255 262 269 269 267
184 181 181 188 193 189 187 195 200 195 191 184 179 190 200 198 192 186 181 180 185 190 187 184 184 184 184 183 183 189 194 196 196 196 198 201 203 204 204 205 207 209 210 209 208 208 207 210 213 212 211 212 213 213 212 211 209 207 204 201 202 204 206 207 209 213 215 213 213 215 215 218 221 222 224 227 230 235 239 242 245 249 252 257 266 272 271 269
170 174 177 185 191 188 186 192 193 188 186 182 181 191 197 194 185 179 179 177 180 189 186 181 181 180 178 179 181 186 191 194 196 197 199 199 200 202 204 205 207 208 208 210 213 213 211 212 213 213 212 212 213 213 212 212 210 208 204 202 205 207 210 211 211 213 214 212 212 214 216 219 224 226 226 228 231 235 239 243 247 251 254 261 270 272 270 270
169 172 173 181 185 183 184 189 190 185 184 185 187 189 189 185 180 177 176 174 178 187 184 179 179 177 175 176 180 187 190 192 194 195 200 202 201 201 202 205 207 206 204 205 210 213 214 215 214 212 212 212 212 211 209 207 206 205 204 205 206 208 210 212 213 213 214 213 212 214 218 221 225 227 227 228 232 237 241 246 249 253 257 265 270 270 270 272
173 171 169 177 184 183 183 187 188 185 184 187 188 185 180 179 178 176 175 174 178 182 180 179 178 176 176 177 179 185 189 192 195 195 197 200 201 202 203 205 207 207 205 206 208 210 210 210 209 208 209 208 208 208 208 208 207 206 206 208 208 208 208 209 213 215 215 214 214 217 221 223 226 228 229 230 234 239 243 248 252 255 258 265 269 271 273 275
175 171 168 174 184 187 185 185 186 186 185 186 188 186 179 176 176 176 176 176 176 177 178 179 178 178 180 181 182 185 187 189 195 198 198 197 198 199 201 203 204 204 205 206 206 208 208 208 207 206 205 206 206 205 205 206 208 210 210 210 209 209 208 208 211 215 216 217 218 221 223 226 228 230 231 234 238 242 246 250 253 255 259 265 268 271 276 278
176 173 167 170 179 184 183 183 185 184 184 184 186 185 179 176 177 178 178 178 173 172 178 180 179 181 184 185 187 188 188 189 192 197 199 199 199 198 197 199 199 199 202 203 204 204 204 206 206 203 202 203 206 206 204 203 205 208 211 210 210 211 212 211 213 215 217 218 221 223 226 229 231 233 235 238 242 245 248 250 252 255 260 265 268 272 275 275
177 174 168 168 173 175 173 174 177 180 182 182 181 178 175 176 179 179 180 183 178 173 179 183 182 182 185 188 192 193 192 193 193 195 197 199 199 198 197 196 195 196 198 199 201 202 200 203 203 200 198 200 204 206 205 202 201 199 201 206 211 214 216 216 217 219 220 222 223 226 229 232 235 238 239 241 243 246 248 250 252 256 260 265 269 271 269 268
173 172 169 170 173 174 169 170 173 177 178 177 174 173 174 176 177 178 181 187 188 184 183 185 184 185 185 186 191 195 192 191 193 194 197 198 197 197 197 194 191 194 196 195 198 199 199 200 200 198 196 197 202 204 202 201 200 198 196 199 206 213 216 218 221 223 225 226 228 229 232 235 239 242 244 245 247 249 250 252 254 257 261 265 267 267 265 266
167 170 172 175 178 173 167 168 171 174 174 172 171 172 173 172 172 177 183 188 193 194 193 190 187 187 187 185 188 192 188 184 186 190 192 193 193 194 194 191 188 190 193 194 195 196 196 198 198 196 194 195 199 200 198 198 200 202 202 201 203 209 214 218 221 224 226 228 230 232 234 236 238 242 245 247 250 251 252 254 256 259 261 264 264 264 264 265
164 172 176 179 179 169 164 166 168 171 173 171 172 171 170 168 168 177 189 191 194 198 200 196 190 188 189 186 185 187 184 181 181 185 186 186 188 188 189 188 187 188 191 193 194 194 195 195 194 194 194 195 197 196 196 197 198 200 203 205 206 209 212 217 221 225 228 230 232 234 235 235 237 240 243 245 247 249 250 252 255 257 258 259 260 261 263 264
158 166 170 171 169 164 164 167 168 170 171 171 171 168 164 166 171 186 199 189 188 194 197 193 187 185 187 186 183 183 183 180 180 182 182 181 181 181 184 187 188 188 188 191 194 195 194 194 192 192 192 193 195 195 196 199 200 199 201 205 208 211 214 218 223 227 230 233 235 237 239 239 240 242 244 245 246 246 247 249 250 252 254 256 257 258 259 259
154 159 160 159 158 158 160 163 164 166 168 168 164 158 156 163 169 176 183 182 185 191 191 186 182 181 184 185 182 181 182 181 178 178 178 178 178 179 183 188 190 189 187 187 193 194 194 193 192 191 191 190 192 195 196 200 203 203 205 208 212 216 219 221 225 229 233 235 237 238 240 240 241 242 242 243 244 245 246 248 250 251 252 253 255 255 255 254
153 155 154 151 152 154 156 158 161 163 163 159 152 150 154 158 155 148 151 169 183 187 183 181 181 181 183 184 180 179 180 178 175 173 171 173 177 179 185 189 190 190 187 186 190 194 194 194 192 193 194 194 194 196 197 200 204 207 210 213 217 220 223 226 229 232 235 239 241 241 241 240 240 239 238 238 240 242 244 246 248 248 250 251 253 253 251 250
151 153 151 151 151 151 153 155 156 155 152 147 146 150 156 155 145 127 132 156 171 174 172 175 178 181 182 180 177 176 174 171 170 170 168 172 178 181 185 190 190 189 187 186 189 192 194 195 194 195 198 200 202 203 202 203 208 211 214 217 220 222 224 227 231 234 236 238 240 242 242 239 238 238 237 236 238 239 240 241 242 243 244 245 249 250 248 248
147 149 149 150 148 148 150 149 146 143 141 141 149 155 158 153 136 124 136 151 159 159 161 167 171 175 177 175 172 169 167 164 167 170 169 172 178 182 186 189 190 188 187 187 189 191 193 196 197 197 198 201 204 207 208 208 210 213 216 219 222 224 225 228 232 236 238 237 237 240 241 238 236 236 237 237 237 237 237 237 237 238 238 240 246 251 251 250
142 146 147 147 145 144 144 141 139 136 133 140 151 153 153 143 124 122 136 147 151 150 153 159 164 166 165 163 163 163 164 164 166 168 171 174 179 182 185 187 188 189 188 189 191 192 193 196 199 200 200 201 201 205 208 209 209 212 216 219 223 227 230 233 235 237 239 238 236 238 240 240 239 239 239 239 238 236 234 234 234 236 238 240 246 251 251 249
139 143 144 144 142 140 137 135 136 134 133 142 150 148 145 134 122 123 130 133 136 143 150 156 158 159 158 158 160 163 167 169 168 169 172 175 179 182 185 186 186 188 190 192 194 195 195 197 200 202 202 203 204 205 208 209 210 212 216 220 224 228 232 234 235 236 237 237 236 237 240 241 241 242 242 241 239 237 236 236 237 238 240 241 244 247 249 248
137 140 141 141 138 134 131 130 133 137 140 148 153 148 143 136 131 130 129 126 124 131 146 157 157 156 160 164 166 165 168 171 171 171 173 175 178 181 184 186 186 187 190 193 195 197 198 200 203 204 205 206 208 208 210 213 215 217 219 223 226 229 232 234 233 233 233 235 237 239 241 242 242 243 244 244 243 242 242 243 244 245 246 245 245 247 249 251
135 138 138 139 135 130 127 127 131 139 147 153 157 155 148 144 143 141 136 134 132 127 135 151 157 160 166 168 163 160 166 171 171 172 174 175 178 181 182 182 184 187 191 193 196 199 201 203 206 208 208 210 212 212 213 215 219 221 224 227 230 232 234 235 235 236 238 239 240 242 243 244 244 245 246 247 248 249 249 250 250 250 250 250 249 249 251 254
135 137 138 139 134 128 126 127 133 142 149 152 157 161 154 150 151 151 146 145 147 141 138 145 151 156 161 161 158 161 168 170 169 170 173 174 176 179 180 180 182 187 191 192 195 199 201 204 209 212 212 213 216 217 218 220 223 225 227 228 231 233 235 235 236 239 242 241 241 243 245 244 244 246 248 250 252 253 253 253 253 253 253 254 254 253 254 257